Weather History for Casper, WY

Change the Weather History Date:

Wednesday, January 30, 2013

  Actual Average Record
Temperature  
Mean Temperature 16 °F 25 °F  
Max Temperature 34 °F 35 °F 60 °F (1971)
Min Temperature -2 °F 14 °F -26 °F (1985)
Degree Days  
Heating Degree Days 49 40  
Month to date heating degree days 1192 1205  
Since 1 July heating degree days 3915 4334  
Cooling Degree Days 0 0  
Month to date cooling degree days 0 0  
Year to date cooling degree days 0 0  
Moisture  
Dew Point 11 °F    
Average Humidity 68    
Maximum Humidity 86    
Minimum Humidity 50    
Precipitation  
Precipitation 0.01 in 0.01 in 0.17 in (1943)
Month to date precipitation 0.27 0.49  
Year to date precipitation 0.27 0.49  
Snow  
Snow 0.10 in 0.30 in - ()
Month to date snowfall 4.3 8.8  
Since 1 July snowfall 23.0 39.3  
Snow Depth 1.00 in    
Sea Level Pressure  
Sea Level Pressure 29.98 in    
Wind  
Wind Speed 13 mph (WSW)    
Max Wind Speed 24 mph    
Max Gust Speed 31 mph    
Visibility 10 miles    
Events Snow    
T = Trace of Precipitation, MM = Missing Value Source: NWS Daily Summary

Daily Weather History Graph

Daily Weather History Graph

Search for Another Location

Airport:

Trip Planner

Search our weather history database for the weather conditions in past years. The results will help you decide how hot, cold, wet, or windy it might be!

Date:

Astronomy

Jan. 30, 2013 Rise Set
Actual Time 7:22 AM MST 5:16 PM MST
Civil Twilight 6:52 AM MST 5:46 PM MST
Nautical Twilight 6:18 AM MST 6:20 PM MST
Astronomical Twilight 5:44 AM MST 6:54 PM MST
Moon 9:25 PM MST (1/30) 8:45 AM MST (1/30)
Length of Visible Light 10h 54m
Length of Day
9h 54m
Waning Gibbous, 87% of the Moon is Illuminated
Jan 30
Waning Gibbous
Feb 3
Last Quarter
Feb 10
New
Feb 17
First Quarter
Feb 25
Full

Hourly Weather History & Observations

Time (MST) Temp. Windchill Dew Point Humidity Pressure Visibility Wind Dir Wind Speed Gust Speed Precip Events Conditions
12:53 AM 3.9 °F -12.2 °F -0.9 °F 80% 30.12 in 9.0 mi WSW 11.5 mph - N/A   Clear
1:53 AM 3.9 °F -10.4 °F -0.0 °F 84% 30.08 in - West 9.2 mph - N/A   Clear
2:53 AM 3.0 °F -4.4 °F -0.9 °F 84% 30.06 in - Variable 3.5 mph - N/A   Clear
3:53 AM 12.9 °F -4.9 °F 5.0 °F 71% 29.99 in - SW 19.6 mph 25.3 mph N/A   Mostly Cloudy
4:53 AM 14.0 °F -2.0 °F 5.0 °F 67% 29.98 in 10.0 mi SW 16.1 mph 23.0 mph N/A   Mostly Cloudy
5:53 AM 15.1 °F -1.1 °F 5.0 °F 64% 29.97 in - SW 17.3 mph 25.3 mph N/A   Overcast
6:53 AM 14.0 °F -2.0 °F 3.9 °F 64% 29.98 in 10.0 mi SW 16.1 mph 25.3 mph N/A   Partly Cloudy
7:53 AM 16.0 °F 0.1 °F 5.0 °F 62% 29.98 in 10.0 mi SW 17.3 mph - N/A   Mostly Cloudy
8:53 AM 17.1 °F 2.0 °F 6.1 °F 62% 29.99 in 10.0 mi SW 16.1 mph - N/A   Partly Cloudy
9:53 AM 19.9 °F 5.7 °F 8.1 °F 60% 29.99 in 10.0 mi SW 16.1 mph - N/A   Clear
10:53 AM 26.1 °F 13.6 °F 10.9 °F 53% 29.99 in 10.0 mi SW 16.1 mph 23.0 mph N/A   Mostly Cloudy
11:53 AM 28.9 °F 15.4 °F 15.1 °F 56% 29.99 in 10.0 mi WSW 21.9 mph 27.6 mph N/A   Mostly Cloudy
12:53 PM 30.9 °F 19.4 °F 17.1 °F 57% 29.94 in 10.0 mi West 17.3 mph 23.0 mph N/A   Overcast
1:53 PM 30.9 °F 22.2 °F 18.0 °F 59% 29.94 in 10.0 mi West 10.4 mph - N/A   Mostly Cloudy
2:53 PM 32.0 °F 24.2 °F 18.0 °F 56% 29.94 in 10.0 mi West 9.2 mph - N/A   Overcast
3:53 PM 32.0 °F 23.0 °F 18.0 °F 56% 29.91 in 10.0 mi WNW 11.5 mph - N/A   Mostly Cloudy
4:53 PM 30.9 °F 25.2 °F 19.0 °F 61% 29.92 in 10.0 mi WNW 5.8 mph - N/A   Overcast
5:53 PM 30.0 °F 21.1 °F 18.0 °F 61% 29.93 in 10.0 mi WSW 10.4 mph - N/A   Overcast
6:53 PM 27.0 °F 16.1 °F 17.1 °F 66% 29.96 in 10.0 mi WSW 12.7 mph - N/A   Mostly Cloudy
7:53 PM 24.1 °F 11.5 °F 15.1 °F 69% 29.98 in 10.0 mi WSW 15.0 mph - N/A   Clear
8:53 PM 24.1 °F 13.7 °F 15.1 °F 69% 29.99 in 10.0 mi WSW 10.4 mph - N/A   Mostly Cloudy
9:53 PM 23.0 °F 11.1 °F 18.0 °F 81% 30.00 in 10.0 mi NE 12.7 mph - N/A   Overcast
10:53 PM 21.0 °F 16.2 °F 17.1 °F 85% 30.00 in - SW 3.5 mph - 0.00 in Snow Light Snow
11:53 PM 21.9 °F - 17.1 °F 82% 30.01 in - North - - 0.00 in Snow Light Snow